DMSP 5D-2 F13 DEB, 40434

Orbit data source: Space-Track

DMSP 5D-2 F13 DEB, 40434 is space debris in SSO originally from a launch on Fri, 24 Mar 1995 UTC launched from the Air Force Western Test Range (AFWTR). Debris objects in space refer to the collection of defunct objects orbiting the Earth. Examples of debris include non-operational satellites, rocket bodies, and fragments generated from explosions, collisions, or faulty payload assembly.

Loading next visibility...
Identifier
40434, 1995-015AL
Orbit
SSO
Country
Flag of USUS
Related business
Manufacturer
Unknown
Mission
Spacecraft
Bus & Motor
Unknown
Mass
Unknown
Launch date (UTC)
1995-03-24 (31 years ago)
Launch vehicle
Unknown
Launch site
Air Force Western Test Range (AFWTR)
Object type
Payload
Rocket body
Debris
Shape & HBR
Unknown shape, 0.1 m
Radar Cross Section
Medium (>0.1 m² and <1 m²)

Expand to show TLE details & history
Last TLE update: 2 days ago

TLE from 2 days ago
0 DMSP 5D-2 F13 DEB
1 40434U 95015AL  26171.39408955  .00000908  00000-0  43611-3 0  9990
2 40434  99.1190 160.4520 0169788 207.9207 151.2776 14.14201437579816
Epoch: 2026-06-20T09:27Z
TLE epoch observation values (Epoch: 2026-06-20T09:27:29.337Z)
Latitude
-0.00003°
Longitude
109.97042°
Altitude
955.966 km
Speed
7.318 km/s
True Right ascension
10h 41m 48s
True Declination
0° 00' 00"
Sunlit
Object was in daylight at epoch
Visualization orbit readout
Latitude
Unknown
Longitude
Unknown
Altitude
Unknown
Speed
Unknown
Apparent Right ascension
Unknown
Apparent Declination
Unknown
Sunlit
N/A
Visualization observer readout
Local Sidereal Time
21:37:36
Azimuth
Unknown
Elevation
Unknown
Doppler factor
Unknown
Orbital elements
Apogee altitude
964.808 km
Perigee altitude
719.622 km
Semi-major axis
7,220.352 km
Eccentricity
0.01698
Inclination
99.119°
RAAN
160.452°
Arg. of periapsis
207.9207°
True anomaly
152.19547°
Mean anomaly
151.2776°
Eccentric anomaly
151.73823°
Mean motion
3.53757 °/min
Orbital period
101.76 mins
BSTAR
0.00043611

Documentation

Showing up to 5 results
|